sat.trackr.live / text

‹ back to catalog

ONEWEB-0137

NORAD 47283 · 2020-100AB

PAYLOAD ACTIVE UNKNOWN

§ Identity

Operator
Country
UK
Launch date
2020-12-18
Launch site
VOSTO
Launch vehicle
Mass (kg)
RCS (m²)

Purposes: comms

External: N2YO · Heavens-Above · Gunter

§ Orbital elements

Epoch: 2026-05-25T03:00:50.810976Z

Period
109.72 min
Inclination
87.8963°
Eccentricity
0.0001872
Mean motion
13.12441588 rev/d
Perigee alt
1,212.3 km
Apogee alt
1,215.1 km
Semi-major
7,591.9 km
B*
5.0027e-4
RAAN
355.2447°
Arg perigee
88.6239°
Mean anomaly
271.5104°
Rev number
26,154

§ Raw data

ONEWEB-01371 47283U 20100AB  26145.12558809  .00000193  00000+0  50027-3 0  99922 47283  87.8963 355.2447 0001872  88.6239 271.5104 13.12441588261546

JSON: /api/v1/satellites/47283 · /tle

For live sub-satellite position, see the globe view (requires WebGL).

§ Visibility from observer

Set your observer location to see the next 7 days of passes ≥ 10°. The values pass through the URL so the page stays shareable.

No JS? Fill the form by hand. The geolocation button needs JavaScript.